Weather History for Grove, OK

Change the Weather History Date:

Wednesday, October 24, 2012

  Actual Average (KSLG) Record (KSLG)
Temperature  
Mean Temperature 76 °F -  
Max Temperature 84 °F 65 °F 82 °F (2003)
Min Temperature 68 °F 47 °F 33 °F (1999)
Cooling Degree Days 11    
Growing Degree Days 26 (Base 50)    
Moisture  
Dew Point 63 °F    
Average Humidity 68    
Maximum Humidity 83    
Minimum Humidity 51    
Precipitation  
Precipitation 0.00 in - - ()
Sea Level Pressure  
Sea Level Pressure 29.89 in    
Wind  
Wind Speed 10 mph (South)    
Max Wind Speed 20 mph    
Max Gust Speed 30 mph    
Visibility 10 miles    
Events      
Averages and records for this station are not official NWS values.
T = Trace of Precipitation, MM = Missing Value Source: NWS Daily Summary

Daily Weather History Graph

Daily Weather History Graph

Search for Another Location

Airport:

Trip Planner

Search our weather history database for the weather conditions in past years. The results will help you decide how hot, cold, wet, or windy it might be!

Date:

Astronomy

Oct. 24, 2012 Rise Set
Actual Time 7:35 AM CDT 6:30 PM CDT
Civil Twilight 7:08 AM CDT 6:56 PM CDT
Nautical Twilight 6:38 AM CDT 7:27 PM CDT
Astronomical Twilight 6:08 AM CDT 7:57 PM CDT
Moon 3:40 PM CDT (10/24) 2:38 AM CDT (10/24)
Length of Visible Light 11h 48m
Length of Day
10h 55m
Waxing Gibbous, 76% of the Moon is Illuminated
Oct 24
Waxing Gibbous
Oct 29
Full
Nov 6
Last Quarter
Nov 13
New
Nov 20
First Quarter

Hourly Weather History & Observations

Time (CDT) Temp. Heat Index Dew Point Humidity Pressure Visibility Wind Dir Wind Speed Gust Speed Precip Events Conditions
12:15 AM 71.6 °F - 62.6 °F 73% 29.91 in 10.0 mi South 9.2 mph - N/A   Clear
12:35 AM 71.6 °F - 62.6 °F 73% 29.91 in 10.0 mi South 10.4 mph - N/A   Clear
1:15 AM 71.6 °F - 62.6 °F 73% 29.92 in 10.0 mi South 6.9 mph - N/A   Clear
1:35 AM 71.6 °F - 62.6 °F 73% 29.92 in 10.0 mi South 8.1 mph - N/A   Clear
1:55 AM 71.6 °F - 62.6 °F 73% 29.92 in 10.0 mi South 8.1 mph - N/A   Clear
2:15 AM 71.6 °F - 62.6 °F 73% 29.91 in 10.0 mi South 8.1 mph - N/A   Clear
2:35 AM 71.6 °F - 62.6 °F 73% 29.91 in 10.0 mi SSE 8.1 mph - N/A   Clear
2:55 AM 69.8 °F - 62.6 °F 78% 29.91 in 10.0 mi SSE 5.8 mph - N/A   Clear
3:15 AM 69.8 °F - 62.6 °F 78% 29.92 in 10.0 mi SSE 6.9 mph - N/A   Clear
3:35 AM 69.8 °F - 62.6 °F 78% 29.92 in 10.0 mi SSE 8.1 mph - N/A   Clear
3:55 AM 69.8 °F - 62.6 °F 78% 29.92 in 10.0 mi SSE 6.9 mph - N/A   Clear
4:15 AM 69.8 °F - 62.6 °F 78% 29.92 in 10.0 mi SSE 8.1 mph - N/A   Clear
4:35 AM 68.0 °F - 62.6 °F 83% 29.92 in 10.0 mi SSE 6.9 mph - N/A   Clear
4:55 AM 68.0 °F - 62.6 °F 83% 29.92 in 10.0 mi SSE 8.1 mph - N/A   Clear
5:15 AM 68.0 °F - 62.6 °F 83% 29.92 in 10.0 mi SSE 6.9 mph - N/A   Clear
5:35 AM 68.0 °F - 62.6 °F 83% 29.92 in 10.0 mi SSE 5.8 mph - N/A   Clear
5:55 AM 68.0 °F - 62.6 °F 83% 29.93 in 10.0 mi SSE 6.9 mph - N/A   Clear
6:15 AM 68.0 °F - 62.6 °F 83% 29.93 in 10.0 mi SE 5.8 mph - N/A   Clear
6:35 AM 68.0 °F - 62.6 °F 83% 29.93 in 10.0 mi SSE 5.8 mph - N/A   Clear
6:55 AM 68.0 °F - 62.6 °F 83% 29.93 in 10.0 mi SSE 8.1 mph - N/A   Clear
7:15 AM 68.0 °F - 62.6 °F 83% 29.93 in 10.0 mi SSE 8.1 mph - N/A   Clear
7:35 AM 68.0 °F - 62.6 °F 83% 29.93 in 10.0 mi SSE 9.2 mph - N/A   Clear
7:55 AM 68.0 °F - 62.6 °F 83% 29.93 in 10.0 mi SSE 9.2 mph - N/A   Clear
8:15 AM 68.0 °F - 62.6 °F 83% 29.94 in 10.0 mi South 9.2 mph - N/A   Clear
8:35 AM 69.8 °F - 62.6 °F 78% 29.94 in 10.0 mi SSE 9.2 mph - N/A   Clear
8:55 AM 69.8 °F - 62.6 °F 78% 29.94 in 10.0 mi South 10.4 mph - N/A   Clear
9:15 AM 71.6 °F - 62.6 °F 73% 29.94 in 10.0 mi South 9.2 mph - N/A   Clear
9:35 AM 71.6 °F - 64.4 °F 78% 29.95 in 10.0 mi South 13.8 mph 18.4 mph N/A   Scattered Clouds
9:55 AM 73.4 °F - 64.4 °F 73% 29.95 in 10.0 mi South 12.7 mph 18.4 mph N/A   Mostly Cloudy
10:15 AM 73.4 °F - 64.4 °F 73% 29.94 in 10.0 mi South 16.1 mph 19.6 mph N/A   Scattered Clouds
10:35 AM 77.0 °F - 64.4 °F 65% 29.94 in 10.0 mi South 16.1 mph 20.7 mph N/A   Clear
10:55 AM 77.0 °F - 64.4 °F 65% 29.94 in 10.0 mi South 15.0 mph 21.9 mph N/A   Clear
11:15 AM 78.8 °F - 64.4 °F 61% 29.93 in 10.0 mi South 15.0 mph 24.2 mph N/A   Scattered Clouds
11:35 AM 78.8 °F - 64.4 °F 61% 29.93 in 10.0 mi South 17.3 mph 25.3 mph N/A   Scattered Clouds
11:55 AM 80.6 °F 82.3 °F 64.4 °F 58% 29.93 in 10.0 mi South 19.6 mph 29.9 mph N/A   Scattered Clouds
12:15 PM 80.6 °F 82.3 °F 64.4 °F 58% 29.92 in 10.0 mi South 16.1 mph 29.9 mph N/A   Clear
12:35 PM 82.4 °F 83.9 °F 64.4 °F 54% 29.91 in 10.0 mi South 16.1 mph 26.5 mph N/A   Clear
12:55 PM 82.4 °F 83.9 °F 64.4 °F 54% 29.90 in 10.0 mi South 16.1 mph 27.6 mph N/A   Scattered Clouds
1:15 PM 82.4 °F 83.9 °F 64.4 °F 54% 29.89 in 10.0 mi SSW 16.1 mph 21.9 mph N/A   Scattered Clouds
1:35 PM 80.6 °F 82.3 °F 64.4 °F 58% 29.88 in 10.0 mi South 13.8 mph 20.7 mph N/A   Scattered Clouds
1:55 PM 82.4 °F 83.9 °F 64.4 °F 54% 29.87 in 10.0 mi South 15.0 mph 21.9 mph N/A   Scattered Clouds
2:15 PM 84.2 °F 85.6 °F 64.4 °F 51% 29.86 in 10.0 mi South 19.6 mph 25.3 mph N/A   Scattered Clouds
2:35 PM 82.4 °F 83.9 °F 64.4 °F 54% 29.87 in 10.0 mi South 18.4 mph 26.5 mph N/A   Scattered Clouds
2:55 PM 80.6 °F 81.8 °F 62.6 °F 54% 29.86 in 10.0 mi South 18.4 mph 21.9 mph N/A   Scattered Clouds
3:15 PM 80.6 °F 81.8 °F 62.6 °F 54% 29.86 in 10.0 mi South 17.3 mph 24.2 mph N/A   Scattered Clouds
3:35 PM 80.6 °F 82.3 °F 64.4 °F 58% 29.85 in 10.0 mi South 12.7 mph 18.4 mph N/A   Clear
4:15 PM 82.4 °F 83.4 °F 62.6 °F 51% 29.84 in 10.0 mi South 17.3 mph 23.0 mph N/A   Scattered Clouds
4:35 PM 80.6 °F 81.8 °F 62.6 °F 54% 29.84 in 10.0 mi South 12.7 mph 21.9 mph N/A   Scattered Clouds
4:55 PM 80.6 °F 81.8 °F 62.6 °F 54% 29.84 in 10.0 mi South 13.8 mph 23.0 mph N/A   Clear
5:15 PM 80.6 °F 81.8 °F 62.6 °F 54% 29.83 in 10.0 mi South 13.8 mph 17.3 mph N/A   Clear
5:35 PM 78.8 °F - 62.6 °F 57% 29.83 in 10.0 mi South 9.2 mph - N/A   Clear
5:55 PM 78.8 °F - 62.6 °F 57% 29.84 in 10.0 mi South 11.5 mph 16.1 mph N/A   Clear
6:15 PM 78.8 °F - 62.6 °F 57% 29.83 in 10.0 mi South 10.4 mph - N/A   Clear
6:35 PM 77.0 °F - 62.6 °F 61% 29.84 in 10.0 mi SSE 8.1 mph - N/A   Clear
6:55 PM 77.0 °F - 60.8 °F 57% 29.83 in 10.0 mi SSE 10.4 mph - N/A   Clear
7:15 PM 77.0 °F - 60.8 °F 57% 29.83 in 10.0 mi SSE 12.7 mph - N/A   Clear
7:55 PM 73.4 °F - 60.8 °F 65% 29.83 in 10.0 mi SSE 6.9 mph - N/A   Clear
8:15 PM 73.4 °F - 60.8 °F 65% 29.83 in 10.0 mi SSE 8.1 mph - N/A   Clear
8:35 PM 73.4 °F - 60.8 °F 65% 29.83 in 10.0 mi South 10.4 mph 16.1 mph N/A   Clear
8:55 PM 73.4 °F - 60.8 °F 65% 29.83 in 10.0 mi SSE 15.0 mph 20.7 mph N/A   Clear
9:15 PM 73.4 °F - 60.8 °F 65% 29.83 in 10.0 mi South 11.5 mph 19.6 mph N/A   Clear
9:35 PM 73.4 °F - 60.8 °F 65% 29.82 in 10.0 mi South 11.5 mph 18.4 mph N/A   Clear
9:55 PM 73.4 °F - 60.8 °F 65% 29.82 in 10.0 mi SSE 12.7 mph 20.7 mph N/A   Clear
10:15 PM 73.4 °F - 60.8 °F 65% 29.81 in 10.0 mi SSE 15.0 mph 18.4 mph N/A   Clear
10:35 PM 73.4 °F - 60.8 °F 65% 29.82 in 10.0 mi South 13.8 mph 20.7 mph N/A   Clear
10:55 PM 73.4 °F - 60.8 °F 65% 29.81 in 10.0 mi South 13.8 mph 19.6 mph N/A   Clear
11:15 PM 73.4 °F - 60.8 °F 65% 29.80 in 10.0 mi SSE 15.0 mph 25.3 mph N/A   Clear
11:35 PM 73.4 °F - 60.8 °F 65% 29.79 in 10.0 mi South 17.3 mph 25.3 mph N/A   Clear
11:55 PM 73.4 °F - 62.6 °F 69% 29.78 in 10.0 mi South 19.6 mph 25.3 mph N/A   Clear